Location: Pabrico
(37.5827°N, 122.0063°W)
Time: 05:28:16
(UTC+00:00)

ARIANE 5 R/B - Visible Passes

Search period start: 13 July 2024 00:00
Search period end: 23 July 2024 00:00
Orbit: 746 x 794 km, 98.8° (Epoch: 12 July)

Date Brightness Start Highest point End Pass type
(mag) Time Alt. Az. Time Alt. Az. Time Alt. Az.
13 Jul 5.1 12:17:23 10° NE 12:20:47 18° E 12:24:12 10° SE visible
16 Jul 5.2 12:11:05 10° ENE 12:14:00 15° E 12:16:56 10° SE visible
19 Jul 5.4 12:04:58 10° ENE 12:07:13 13° E 12:09:27 10° ESE visible
21 Jul 4.9 12:31:48 10° NE 12:35:59 25° E 12:40:11 10° SSE visible
22 Jul 5.6 11:59:23 10° E 12:00:24 11° E 12:01:26 10° ESE visible
